EW7239 Weather Reports


time (UTC)temp
C
wind
direction
speed
KPH
gust
KPH
rain 1hr
cm
rain 24hr
cm
rain mn
cm
humidity
%
barometer
mb
20260506012250 18 219 9.7 20.9 0.00 0.38 0.38 48 1014.0
20260506011751 19 221 9.7 24.1 0.00 0.38 0.38 48 1014.0
20260506011249 19 240 9.7 19.3 0.00 0.38 0.38 49 1014.0
20260506010749 18 244 11.3 19.3 0.00 0.38 0.38 49 1014.0
20260506010248 18 223 11.3 19.3 0.00 0.38 0.38 48 1014.0
20260506010021 18 221 11.3 17.7 0.00 0.38 0.38 48 1014.0
20260506005249 19 223 9.7 20.9 0.00 0.38 0.38 47 1014.0
20260506004749 19 225 11.3 20.9 0.00 0.38 0.38 47 1014.0
20260506004247 19 263 9.7 20.9 0.00 0.38 0.38 47 1014.0
20260506003747 19 256 9.7 24.1 0.00 0.38 0.38 48 1013.9
20260506003245 19 250 11.3 24.1 0.00 0.38 0.38 47 1014.0
20260506002237 19 257 12.9 27.4 0.00 0.38 0.38 47 1013.9
20260506001737 19 231 12.9 27.4 0.00 0.38 0.38 47 1013.9
20260506001508 19 211 12.9 22.5 0.00 0.38 0.38 47 1013.8
20260506001005 20 230 11.3 22.5 0.00 0.38 0.38 46 1013.8
20260506000232 20 229 11.3 20.9 0.00 0.38 0.38 48 1013.8
20260505235733 19 240 12.9 22.5 0.00 0.38 0.38 48 1013.9
20260505235229 19 228 11.3 22.5 0.00 0.38 0.38 48 1013.8
20260505234959 19 232 12.9 25.7 0.00 0.38 0.38 48 1013.8
20260505234229 19 236 14.5 25.7 0.00 0.38 0.38 49 1013.9
20260505233725 19 213 14.5 22.5 0.00 0.38 0.38 49 1013.9
20260505233224 19 220 11.3 22.5 0.00 0.38 0.38 48 1013.9
20260505232723 19 225 9.7 19.3 0.00 0.38 0.38 49 1013.9
20260505232223 18 231 11.3 20.9 0.00 0.38 0.38 51 1013.9
20260505231721 18 227 14.5 20.9 0.00 0.38 0.38 52 1013.9
20260505231221 18 234 14.5 22.5 0.00 0.38 0.38 51 1013.9
20260505230219 18 216 9.7 17.7 0.00 0.38 0.38 50 1014.0
20260505225718 18 215 9.7 17.7 0.00 0.38 0.38 51 1014.0
20260505225217 18 263 8.0 17.7 0.00 0.38 0.38 51 1014.0
20260505224717 18 252 8.0 17.7 0.00 0.38 0.38 51 1014.1
20260505224217 18 261 9.7 22.5 0.00 0.38 0.38 52 1014.1
20260505223717 18 225 9.7 22.5 0.00 0.38 0.38 51 1014.2
20260505223217 18 240 9.7 17.7 0.00 0.38 0.38 51 1014.1
20260505222714 18 248 9.7 17.7 0.00 0.38 0.38 52 1014.2
20260505222212 18 262 9.7 20.9 0.00 0.38 0.38 51 1014.3
20260505221713 18 227 11.3 20.9 0.00 0.38 0.38 51 1014.2
20260505221210 19 227 9.7 19.3 0.00 0.38 0.38 51 1014.3
20260505220709 18 246 9.7 17.7 0.00 0.38 0.38 51 1014.2
20260505220209 19 222 9.7 17.7 0.00 0.38 0.38 49 1014.3
20260505215705 19 235 9.7 19.3 0.00 0.38 0.38 50 1014.3
20260505215205 19 219 8.0 19.3 0.00 0.38 0.38 50 1014.3
20260505214703 19 223 8.0 16.1 0.00 0.38 0.38 51 1014.4
20260505214204 19 236 8.0 17.7 0.00 0.38 0.38 51 1014.4
20260505213701 19 242 8.0 17.7 0.00 0.38 0.38 51 1014.4
20260505213433 18 267 9.7 19.3 0.00 0.38 0.38 51 1014.5
20260505212655 19 223 9.7 19.3 0.00 0.38 0.38 50 1014.5
20260505212154 19 229 9.7 19.3 0.00 0.38 0.38 51 1014.5
20260505211650 19 267 8.0 19.3 0.00 0.38 0.38 51 1014.6
20260505211150 19 231 6.4 16.1 0.00 0.38 0.38 51 1014.6
20260505210920 19 236 8.0 19.3 0.00 0.38 0.38 50 1014.7
20260505210147 19 245 9.7 19.3 0.00 0.38 0.38 51 1014.7
20260505205647 18 229 9.7 17.7 0.00 0.38 0.38 53 1014.7
20260505205147 18 226 9.7 24.1 0.00 0.38 0.38 53 1014.7
20260505204646 18 222 11.3 24.1 0.00 0.38 0.38 52 1014.7
20260505204146 19 217 11.3 22.5 0.00 0.38 0.38 50 1014.7
20260505203646 19 223 11.3 22.5 0.00 0.38 0.38 51 1014.6
20260505203413 19 222 12.9 24.1 0.00 0.38 0.38 51 1014.6
20260505202643 19 257 11.3 24.1 0.00 0.38 0.38 51 1014.6
20260505202138 19 211 11.3 22.5 0.00 0.38 0.38 51 1014.6
20260505201907 19 240 11.3 22.5 0.00 0.38 0.38 51 1014.6
20260505201136 19 221 11.3 22.5 0.00 0.38 0.38 51 1014.6
20260505200634 19 219 12.9 22.5 0.00 0.38 0.38 52 1014.7
20260505200135 18 222 11.3 22.5 0.00 0.38 0.38 53 1014.7
20260505195634 18 226 11.3 22.5 0.00 0.38 0.38 53 1014.7
20260505195135 18 228 12.9 20.9 0.00 0.38 0.38 53 1014.8
20260505194634 18 223 9.7 20.9 0.00 0.38 0.38 52 1014.9
20260505194135 19 250 9.7 19.3 0.00 0.38 0.38 51 1014.9
20260505193906 19 222 9.7 19.3 0.00 0.38 0.38 50 1014.9
20260505193136 19 211 9.7 17.7 0.00 0.38 0.38 49 1014.9
20260505192635 19 222 11.3 17.7 0.00 0.38 0.38 49 1014.9
20260505192135 19 223 9.7 19.3 0.00 0.38 0.38 51 1015.0
20260505191635 18 210 9.7 19.3 0.00 0.38 0.38 52 1015.0
20260505191135 18 232 6.4 19.3 0.00 0.38 0.38 51 1015.1
20260505190632 18 221 6.4 19.3 0.00 0.38 0.38 51 1015.0
20260505190132 18 219 9.7 20.9 0.00 0.38 0.38 51 1015.1
20260505185633 18 216 9.7 20.9 0.00 0.38 0.38 51 1015.1
20260505185133 18 238 6.4 17.7 0.00 0.38 0.38 52 1015.1
20260505184128 18 210 9.7 17.7 0.00 0.38 0.38 53 1015.1
20260505183627 18 223 8.0 19.3 0.00 0.38 0.38 52 1015.2
20260505183127 18 209 6.4 19.3 0.00 0.38 0.38 52 1015.1
20260505182858 18 235 6.4 14.5 0.00 0.38 0.38 54 1015.2
20260505182125 18 234 4.8 16.1 0.00 0.38 0.38 54 1015.2
20260505181619 18 215 6.4 16.1 0.00 0.38 0.38 58 1015.2
20260505181116 17 212 8.0 14.5 0.00 0.38 0.38 58 1015.2
20260505180617 17 218 9.7 17.7 0.00 0.38 0.38 57 1015.2
20260505180112 17 221 8.0 17.7 0.00 0.38 0.38 60 1015.2
20260505175609 17 209 8.0 16.1 0.00 0.38 0.38 60 1015.1
20260505175109 17 200 8.0 16.1 0.00 0.38 0.38 60 1015.1
20260505174604 17 198 8.0 14.5 0.00 0.38 0.38 60 1015.0
20260505174332 17 216 8.0 16.1 0.00 0.38 0.38 62 1015.0
20260505173601 16 223 9.7 19.3 0.00 0.38 0.38 63 1014.9
20260505173057 16 219 9.7 19.3 0.00 0.38 0.38 63 1014.9
20260505172556 16 209 9.7 17.7 0.00 0.38 0.38 64 1014.9
20260505172057 17 209 9.7 17.7 0.00 0.38 0.38 64 1014.8
20260505171555 17 250 9.7 16.1 0.00 0.38 0.38 64 1014.8
20260505171054 16 229 8.0 14.5 0.00 0.38 0.38 66 1014.8
20260505170551 16 194 8.0 16.1 0.00 0.38 0.38 67 1014.8
20260505170052 16 209 9.7 17.7 0.00 0.38 0.38 68 1014.7
20260505165550 16 223 8.0 19.3 0.00 0.38 0.38 71 1014.8
20260505165323 15 223 6.4 19.3 0.00 0.38 0.38 71 1014.8
20260505164551 15 216 6.4 14.5 0.00 0.38 0.38 73 1014.7
20260505164049 15 211 8.0 14.5 0.00 0.38 0.38 74 1014.7
20260505163549 15 214 8.0 14.5 0.00 0.38 0.38 75 1014.7
20260505163049 15 202 8.0 14.5 0.00 0.38 0.38 78 1014.6
20260505162547 14 209 8.0 14.5 0.00 0.38 0.38 80 1014.6
20260505162044 14 204 8.0 14.5 0.00 0.38 0.38 81 1014.6
20260505161545 14 223 8.0 17.7 0.00 0.38 0.38 82 1014.6
20260505161042 13 223 8.0 17.7 0.00 0.38 0.38 83 1014.6
20260505160540 13 217 8.0 14.5 0.00 0.38 0.38 84 1014.4
20260505153036 12 214 9.7 16.1 0.00 0.38 0.38 85 1014.3
20260505152537 12 224 8.0 14.5 0.00 0.38 0.38 84 1014.3
20260505152034 12 218 9.7 14.5 0.00 0.38 0.38 83 1014.2
20260505151535 12 213 9.7 16.1 0.00 0.38 0.38 83 1014.1
20260505151034 12 210 9.7 16.1 0.00 0.38 0.38 82 1014.0
20260505150807 12 209 8.0 14.5 0.00 0.38 0.38 81 1014.0
20260505140535 12 226 4.8 8.0 0.00 0.38 0.38 81 1013.8
20260505125018 12 226 4.8 8.0 0.00 0.38 0.38 83 1013.5
20260505124516 12 226 3.2 8.0 0.00 0.38 0.38 83 1013.6
20260505123517 12 226 4.8 8.0 0.03 0.38 0.38 84 1013.5
20260505123017 12 226 4.8 6.4 0.03 0.38 0.38 84 1013.6
20260505122517 12 226 4.8 9.7 0.03 0.38 0.38 84 1013.5
20260505122017 12 226 6.4 9.7 0.05 0.38 0.38 84 1013.5
20260505121746 12 225 6.4 11.3 0.05 0.38 0.38 84 1013.5
20260505121016 12 225 6.4 11.3 0.08 0.38 0.38 85 1013.6
20260505120748 12 225 4.8 9.7 0.10 0.38 0.38 85 1013.6
20260505115518 12 225 4.8 9.7 0.18 0.38 0.38 85 1013.6
20260505115249 12 225 4.8 9.7 0.25 0.38 0.38 85 1013.6
20260505114517 12 225 4.8 8.0 0.28 0.38 0.38 85 1013.6
20260505114016 12 225 4.8 9.7 0.30 0.36 0.36 85 1013.7
20260505113517 12 225 4.8 9.7 0.30 0.36 0.36 86 1013.7
20260505113243 12 225 4.8 8.0 0.30 0.36 0.36 86 1013.7
20260505112511 12 225 3.2 8.0 0.33 0.36 0.36 86 1013.7
20260505112238 12 225 1.6 4.8 0.30 0.33 0.33 86 1013.7
20260505111507 12 225 1.6 6.4 0.30 0.33 0.33 86 1013.7
20260505111007 12 225 3.2 6.4 0.28 0.30 0.30 86 1013.8
20260505110505 12 225 3.2 6.4 0.25 0.28 0.28 86 1013.7
20260505101951 12 225 3.2 8.0 0.03 0.03 0.03 86 1013.7
20260505101449 12 225 3.2 8.0 0.03 0.03 0.03 85 1013.7
20260505100948 12 225 3.2 9.7 0.03 0.03 0.03 85 1013.8
20260505100448 12 225 3.2 9.7 0.03 0.03 0.03 85 1013.8
20260505095944 12 225 1.6 6.4 0.03 0.03 0.03 85 1013.9
20260505095445 13 225 1.6 6.4 0.00 0.00 0.00 85 1013.8
20260505094941 13 225 3.2 8.0 0.00 0.00 0.00 84 1013.8
20260505094441 13 225 4.8 12.9 0.00 0.00 0.00 84 1013.9
20260505093941 13 225 4.8 12.9 0.00 0.00 0.00 84 1013.9
20260505093436 13 225 3.2 8.0 0.00 0.00 0.00 84 1013.9
20260505092938 13 225 1.6 8.0 0.00 0.00 0.00 84 1013.9
20260505092435 13 225 0.0 0.0 0.00 0.00 0.00 85 1014.0
20260505091936 12 225 0.0 0.0 0.00 0.00 0.00 84 1014.0
20260505091706 12 225 0.0 0.0 0.00 0.00 0.00 85 1014.1
20260505090936 12 225 0.0 0.0 0.00 0.00 0.00 85 1014.1
20260505090435 12 225 0.0 0.0 0.00 0.00 0.00 85 1014.2
20260505085936 12 225 0.0 0.0 0.00 0.00 0.00 85 1014.2
20260505085434 13 225 0.0 0.0 0.00 0.00 0.00 85 1014.3
20260505084935 13 225 0.0 0.0 0.00 0.00 0.00 85 1014.4
20260505084433 13 225 0.0 0.0 0.00 0.00 0.00 85 1014.3
20260505083930 13 225 0.0 3.2 0.00 0.00 0.00 85 1014.4
20260505083431 13 225 1.6 4.8 0.00 0.00 0.00 85 1014.4
20260505082926 13 225 1.6 4.8 0.00 0.00 0.00 85 1014.4
20260505082424 13 225 1.6 4.8 0.00 0.00 0.00 85 1014.5
20260505081422 13 225 1.6 4.8 0.00 0.00 0.00 84 1014.6
20260505080921 13 225 1.6 4.8 0.00 0.00 0.00 84 1014.6
20260505080419 13 225 1.6 4.8 0.00 0.00 0.00 84 1014.7
20260505075919 12 225 1.6 4.8 0.00 0.00 0.00 84 1014.8
20260505075420 13 225 3.2 9.7 0.00 0.00 0.00 84 1014.8
20260505074919 13 225 3.2 9.7 0.00 0.00 0.00 84 1014.8
20260505074417 13 225 3.2 9.7 0.00 0.00 0.00 83 1014.8
20260505073916 13 225 1.6 4.8 0.00 0.00 0.00 83 1014.8
20260505073648 13 225 1.6 6.4 0.00 0.00 0.00 83 1014.8
20260505072917 13 225 3.2 8.0 0.00 0.00 0.00 82 1014.9
20260505072649 13 225 3.2 8.0 0.00 0.00 0.00 81 1014.9
20260505071918 13 225 3.2 8.0 0.00 0.00 0.00 80 1014.9
20260505071417 13 225 4.8 9.7 0.00 0.00 0.00 80 1015.0
20260505070910 13 225 4.8 9.7 0.00 0.00 0.00 79 1014.9
20260505070408 13 225 4.8 9.7 0.00 0.00 0.00 79 1015.0
20260505065906 14 225 4.8 9.7 0.00 0.00 0.00 78 1014.9
20260505065406 14 225 6.4 11.3 0.00 0.00 0.00 78 1014.9
20260505064906 14 225 6.4 11.3 0.00 0.00 0.00 77 1015.0
20260505064405 14 226 6.4 11.3 0.00 0.00 0.00 77 1015.0
20260505063903 14 226 6.4 11.3 0.00 0.00 0.00 77 1015.0
20260505063405 14 226 6.4 14.5 0.00 0.00 0.00 77 1015.0
20260505062904 14 226 6.4 14.5 0.00 0.00 0.00 77 1015.0
20260505062404 14 226 8.0 14.5 0.00 0.00 0.00 76 1015.0
20260505061900 14 225 8.0 14.5 0.00 0.00 0.00 76 1014.9
20260505061359 14 229 8.0 14.5 0.00 0.00 0.00 76 1015.0
20260505060900 14 227 6.4 12.9 0.00 0.00 0.00 76 1015.0
20260505060356 14 227 6.4 14.5 0.00 0.00 0.00 76 1015.1
20260505055857 14 226 6.4 14.5 0.00 0.00 0.00 77 1015.0
20260505055355 14 227 8.0 14.5 0.00 0.00 0.00 76 1015.1
20260505054855 14 228 9.7 16.1 0.00 0.00 0.00 76 1015.1
20260505054355 14 225 8.0 16.1 0.00 0.00 0.00 76 1015.1
20260505053855 14 220 8.0 14.5 0.00 0.00 0.00 76 1015.2
20260505053354 14 220 8.0 14.5 0.00 0.00 0.00 76 1015.2
20260505052855 14 219 8.0 14.5 0.00 0.00 0.00 76 1015.3
20260505052353 14 219 8.0 16.1 0.00 0.00 0.00 77 1015.3
20260505051853 14 220 9.7 16.1 0.00 0.00 0.00 76 1015.3
20260505051352 14 223 8.0 16.1 0.00 0.00 0.00 76 1015.3
20260505050855 14 217 8.0 14.5 0.00 0.00 0.00 77 1015.4
20260505050352 14 216 9.7 17.7 0.00 0.00 0.00 76 1015.4
20260505050123 14 223 9.7 17.7 0.00 0.00 0.00 76 1015.3
20260505041119 15 221 11.3 19.3 0.00 0.00 0.00 74 1015.1
20260505040348 15 211 9.7 19.3 0.00 0.00 0.00 73 1015.2
20260505035847 15 224 8.0 17.7 0.00 0.00 0.00 72 1015.1
20260505035619 15 220 8.0 17.7 0.00 0.00 0.00 72 1015.0
20260505034849 15 225 9.7 20.9 0.00 0.00 0.00 71 1015.0
20260505034348 15 224 11.3 20.9 0.00 0.00 0.00 70 1014.9
20260505034116 15 228 9.7 20.9 0.00 0.00 0.00 69 1014.9
20260505033346 15 219 9.7 17.7 0.00 0.00 0.00 69 1014.9
20260505032841 15 223 11.3 20.9 0.00 0.00 0.00 69 1014.9
20260505032341 15 223 12.9 20.9 0.00 0.00 0.00 68 1014.8
20260505031841 15 224 11.3 20.9 0.00 0.00 0.00 67 1014.7
20260505031107 15 224 9.7 20.9 0.00 0.00 0.00 66 1014.8
20260505030337 15 223 11.3 19.3 0.00 0.00 0.00 66 1014.7
20260505025839 15 213 12.9 20.9 0.00 0.00 0.00 65 1014.7
20260505025337 15 213 12.9 20.9 0.00 0.00 0.00 64 1014.7
20260505025109 15 217 12.9 20.9 0.00 0.00 0.00 64 1014.7
20260505024609 15 221 12.9 20.9 0.00 0.00 0.00 64 1014.6
20260505023838 16 223 12.9 20.9 0.00 0.00 0.00 64 1014.7
20260505023338 16 207 12.9 25.7 0.00 0.00 0.00 64 1014.6
20260505022837 16 220 12.9 25.7 0.00 0.00 0.00 63 1014.6
20260505022609 16 229 12.9 25.7 0.00 0.00 0.00 63 1014.5
20260505021837 16 223 12.9 25.7 0.00 0.00 0.00 62 1014.5
20260505021337 16 204 12.9 24.1 0.00 0.00 0.00 62 1014.5
20260505020836 16 229 12.9 24.1 0.00 0.00 0.00 62 1014.5
20260505020331 16 227 11.3 20.9 0.00 0.00 0.00 61 1014.5
20260505015831 16 214 12.9 20.9 0.00 0.00 0.00 61 1014.4
20260505015332 16 207 12.9 20.9 0.00 0.00 0.00 61 1014.4
20260505015101 16 223 12.9 19.3 0.00 0.00 0.00 60 1014.4
20260505014329 16 202 12.9 19.3 0.00 0.00 0.00 60 1014.4
20260505013830 17 207 14.5 25.7 0.00 0.00 0.00 59 1014.4
20260505013325 17 223 14.5 25.7 0.00 0.00 0.00 57 1014.5
20260505012824 17 220 14.5 27.4 0.00 0.00 0.00 57 1014.5